Wind_Speed
22 24 24 24 25 27 28 29 30 30 30 29 30 30 30 28 26 24 23 24 24 23 23 23 24 25 27 28 29 30 30 30 31 31 31 30 30 31 31 31 31 31 32 32
25 26 27 25 26 26 27 27 27 28 27 28 27 27 24 21 19 17 16 17 18 18 19 20 23 24 25 26 27 29 30 30 30 30 29 29 29 29 30 30 30 31 32 32
29 29 28 27 26 25 25 25 25 25 25 25 24 23 22 19 17 15 14 14 15 16 18 20 22 23 24 25 26 27 28 28 28 28 28 28 29 29 29 29 30 30 31 31
34 32 30 28 26 24 24 23 23 23 23 22 21 21 20 18 15 14 13 13 14 16 17 19 21 22 23 23 24 24 24 25 26 26 26 27 27 27 27 27 27 28 28 29
35 35 32 28 26 24 23 21 22 22 21 20 19 19 18 17 15 14 13 13 13 14 15 16 16 17 19 20 21 21 21 22 22 22 21 21 21 22 22 24 25 25 26 27
31 33 33 28 26 23 23 21 21 20 19 19 18 18 18 16 15 14 14 14 14 13 13 13 14 15 15 16 17 18 19 19 19 18 18 18 19 19 21 22 22 23 24 24
28 31 32 30 29 26 24 22 21 20 19 18 17 17 17 16 15 14 13 13 13 12 12 12 11 12 12 13 14 14 15 15 15 15 15 16 16 17 18 19 20 20 21 22
26 29 29 30 31 28 25 23 21 20 19 17 16 16 15 15 14 13 12 11 11 10 10 10 10 10 11 11 12 11 12 12 12 12 13 14 14 15 16 16 17 18 19 20
26 27 29 31 32 31 28 25 23 22 20 17 16 15 14 13 12 11 10 10 9 8 8 7 8 8 8 8 9 9 10 10 10 11 11 11 12 13 13 14 15 16 18 20
25 26 29 31 33 32 29 26 24 23 22 19 17 15 14 12 11 10 9 8 8 7 6 6 6 6 6 6 7 7 8 8 8 8 8 9 10 11 12 13 15 17 18 20
24 24 26 27 29 30 30 26 23 23 23 22 19 17 16 15 13 11 10 9 8 8 7 6 6 6 6 6 6 6 6 7 7 7 8 9 10 11 12 14 15 17 18 20
23 23 23 22 24 26 27 26 25 23 23 24 22 20 19 18 17 15 14 12 11 10 10 9 8 8 7 7 7 7 7 8 8 9 9 10 11 12 14 15 16 18 19 21
23 22 21 20 19 20 23 24 24 23 23 24 24 22 21 21 20 19 18 17 16 15 14 13 13 12 11 11 10 10 10 10 11 11 12 12 13 13 14 15 17 18 20 21
24 22 20 19 18 17 19 21 23 22 20 21 23 23 23 23 23 22 22 21 20 19 19 18 17 16 16 15 14 14 14 14 14 14 14 14 14 14 15 15 16 18 19 20
24 22 20 19 18 18 19 20 21 21 20 20 21 21 22 23 24 24 24 23 23 23 22 22 21 20 20 19 18 17 17 17 17 16 16 16 16 15 15 15 16 17 18 19
24 23 22 20 19 18 18 19 19 20 21 20 19 20 21 22 23 25 26 26 25 25 24 23 23 22 22 21 21 20 20 19 19 18 18 17 17 16 15 15 16 17 18 19
26 24 23 23 22 21 20 20 21 22 22 21 21 21 21 21 21 22 25 26 26 26 27 26 26 24 24 23 22 22 22 21 21 20 19 19 18 18 17 17 17 18 19 20
29 27 26 25 23 22 22 23 23 23 23 23 23 23 22 22 21 22 24 25 25 26 27 29 29 28 26 25 24 24 23 23 22 22 21 20 20 20 20 19 19 19 20 21
30 30 29 29 28 27 25 24 24 24 24 25 25 25 24 23 23 24 24 25 24 24 26 28 28 29 29 29 27 26 25 24 24 23 23 22 21 21 21 21 21 21 22 23
32 32 33 32 31 31 29 27 26 26 26 27 27 27 26 25 24 24 25 25 24 24 26 27 27 27 28 30 29 27 26 25 25 24 24 23 22 22 22 22 22 23 24 25
35 35 36 36 34 34 33 32 31 30 29 29 29 29 29 28 27 27 27 26 24 25 26 27 26 26 26 28 28 28 27 26 25 25 24 24 24 23 23 23 23 24 25 26
42 41 41 41 40 39 38 37 36 35 33 32 32 33 34 33 31 30 29 27 26 27 28 27 25 25 25 25 26 27 27 26 26 25 24 24 24 24 24 24 24 25 25 26
51 49 48 47 45 45 44 42 40 39 38 37 37 37 38 37 36 34 31 28 29 29 29 27 26 24 24 24 24 25 26 26 26 26 25 25 24 24 24 24 24 24 25 26
58 57 55 54 52 51 49 48 47 45 44 42 40 40 39 39 38 35 33 31 31 31 31 28 27 26 24 24 23 23 24 25 26 26 25 25 25 24 24 23 24 24 25 26
63 63 61 57 54 52 50 48 46 45 43 42 41 40 39 39 38 35 34 33 32 32 31 30 28 26 25 24 23 22 23 24 25 25 25 24 24 23 23 23 23 24 25 26
61 62 60 57 54 51 47 44 42 40 39 38 37 36 36 36 36 34 34 33 32 32 31 30 29 27 26 24 23 22 22 22 22 22 22 21 22 22 22 22 23 23 25 26
52 53 53 52 48 45 42 39 36 35 34 34 33 32 32 32 33 33 33 32 31 31 31 31 30 28 27 25 24 23 21 20 20 21 20 20 21 21 22 22 23 23 25 27
Wind_Direction
290 290 292 297 301 304 308 313 318 322 323 321 318 313 309 302 292 283 276 270 266 267 263 259 260 261 260 259 260 262 264 265 267 268 270 271 272 273 274 275 277 278 279 279
290 290 292 295 298 301 305 312 318 322 323 322 322 322 316 310 303 294 285 276 268 267 262 258 257 258 258 258 258 259 261 263 265 266 267 268 270 271 273 274 276 278 279 280
289 289 290 292 294 298 302 310 316 321 324 325 326 328 326 319 311 304 293 280 272 267 262 257 255 255 256 255 255 257 258 259 261 263 265 268 269 271 272 275 277 278 280 281
284 284 285 288 290 294 299 307 313 320 325 328 328 329 329 327 319 311 303 293 282 275 266 258 254 253 252 251 253 255 256 258 260 262 264 267 269 271 274 276 279 281 282 284
277 276 278 281 285 291 295 303 309 317 323 326 327 327 328 327 321 315 307 298 289 280 271 262 258 257 254 251 253 254 256 257 259 262 266 269 271 275 278 281 283 285 286 287
281 276 276 276 278 282 286 292 299 309 317 324 327 325 325 325 321 316 311 303 295 288 280 271 264 262 260 256 254 254 254 256 260 264 268 272 276 280 282 285 287 290 291 292
288 283 282 282 279 278 281 286 293 301 311 320 325 327 327 325 323 319 313 308 301 295 290 285 278 271 265 262 259 256 255 257 260 265 271 275 280 285 288 291 293 295 296 297
291 285 287 286 285 282 280 282 287 294 302 311 317 323 327 328 328 326 322 316 309 303 297 290 283 275 269 262 259 257 257 258 262 268 273 279 283 287 291 294 298 299 300 301
292 286 282 282 284 282 280 281 283 286 291 298 303 309 317 325 330 332 329 326 322 314 305 293 284 277 268 262 259 259 259 262 265 269 274 279 284 289 293 297 299 301 302 303
298 293 283 278 280 277 277 278 277 279 283 287 289 293 298 304 313 321 325 325 324 320 311 297 285 277 269 264 262 262 261 260 263 267 272 277 283 290 296 299 302 303 304 305
305 299 289 281 276 275 275 273 273 274 279 282 281 281 284 288 292 297 302 307 310 310 306 299 290 281 273 269 267 264 263 263 267 272 278 284 291 296 300 303 306 308 309 309
311 302 298 293 280 274 273 272 269 270 272 276 277 276 277 279 282 285 287 290 292 293 293 292 289 286 280 275 273 271 271 272 276 280 286 291 295 299 303 306 309 311 313 315
314 307 303 302 293 282 274 270 268 269 271 271 272 272 274 276 277 278 279 281 282 283 285 286 285 284 283 282 279 278 278 280 281 284 287 291 295 300 304 307 310 313 316 320
311 309 306 303 300 295 287 278 273 269 270 271 269 269 270 273 275 276 276 276 277 278 279 280 281 281 281 280 280 280 281 283 284 286 287 290 294 299 304 307 311 314 318 321
305 305 304 302 299 296 293 288 282 278 272 269 269 271 271 270 270 272 274 275 275 275 276 277 277 277 277 277 278 278 280 282 284 285 287 289 293 298 302 305 307 310 315 320
299 299 298 297 295 295 293 291 288 285 282 279 278 277 275 273 271 269 271 272 274 274 274 275 275 274 274 274 275 276 277 279 281 283 285 288 291 293 295 299 301 305 310 317
295 294 293 293 292 290 288 287 285 283 283 282 282 282 281 279 277 274 271 271 272 273 273 272 272 273 273 273 273 273 274 276 278 280 281 284 286 289 291 294 298 302 308 313
292 289 288 287 286 285 283 282 282 284 284 284 283 283 282 280 278 276 274 274 274 274 275 273 270 269 270 272 271 271 271 272 274 276 278 280 283 287 290 294 298 302 307 311
287 284 282 280 279 278 277 276 278 280 282 283 283 283 282 279 276 274 274 274 275 276 277 277 274 270 267 267 267 268 269 270 271 274 276 278 281 285 289 293 297 301 305 309
285 282 279 278 276 273 272 274 276 277 279 281 283 283 282 278 275 272 270 271 272 273 276 279 279 276 270 266 264 264 265 266 268 271 274 277 279 282 286 291 295 298 302 306
279 278 275 271 272 270 269 271 274 276 277 280 282 283 282 279 274 271 268 267 266 267 271 276 279 278 274 268 264 262 263 264 265 266 269 273 277 281 284 288 292 296 300 304
274 274 273 267 265 266 267 268 268 270 271 275 279 281 280 278 274 269 266 263 259 260 264 268 273 276 274 271 266 262 261 263 264 265 267 269 272 276 280 284 288 292 297 301
272 270 268 266 268 268 266 267 268 269 270 273 276 277 276 274 271 267 263 258 255 255 258 260 263 267 270 271 268 263 260 261 262 265 267 270 272 275 278 282 286 290 295 301
270 269 268 267 267 269 269 269 270 271 272 274 274 273 271 269 267 263 259 253 250 250 252 254 257 259 263 267 267 265 262 260 262 264 268 270 272 275 277 281 285 289 294 300
270 270 269 268 268 269 270 270 271 272 272 271 271 270 268 266 263 259 254 251 247 246 246 248 250 253 256 261 263 264 262 261 262 264 267 269 272 274 276 279 283 287 293 300
273 273 272 272 271 271 271 270 271 270 269 269 269 267 265 263 259 254 249 246 242 241 242 242 243 246 250 253 257 260 260 260 260 261 264 268 273 275 277 278 282 287 293 300
276 274 272 270 269 269 268 268 268 267 265 265 264 263 261 258 254 249 245 241 238 236 237 238 238 241 244 247 251 254 256 258 259 261 264 268 273 275 276 278 282 288 294 300
Height
5803 5800 5798 5796 5793 5789 5786 5781 5776 5771 5764 5759 5752 5746 5741 5736 5732 5730 5730 5731 5733 5734 5736 5738 5739 5741 5742 5744 5745 5747 5748 5750 5751 5752 5753 5753 5753 5753 5753 5753 5753 5752 5752 5751
5796 5793 5791 5790 5788 5784 5780 5776 5771 5765 5760 5754 5747 5741 5735 5730 5726 5725 5724 5725 5725 5726 5727 5729 5731 5732 5734 5735 5737 5739 5740 5741 5743 5744 5744 5744 5745 5745 5745 5745 5744 5744 5743 5742
5789 5786 5785 5784 5782 5779 5775 5771 5766 5761 5756 5749 5743 5737 5732 5727 5724 5721 5720 5720 5720 5720 5720 5721 5723 5724 5726 5727 5729 5730 5731 5733 5734 5735 5736 5736 5736 5737 5737 5737 5736 5735 5734 5733
5780 5779 5778 5779 5775 5773 5769 5766 5761 5756 5751 5746 5740 5735 5730 5725 5722 5719 5718 5716 5715 5715 5715 5715 5716 5717 5718 5720 5721 5722 5723 5725 5726 5726 5727 5727 5728 5729 5729 5728 5728 5727 5726 5725
5771 5769 5769 5770 5768 5766 5763 5760 5756 5752 5748 5743 5737 5732 5728 5724 5721 5718 5716 5714 5712 5711 5711 5711 5711 5711 5712 5713 5714 5715 5716 5717 5718 5719 5719 5720 5721 5721 5721 5721 5720 5719 5718 5716
5762 5759 5759 5762 5761 5759 5757 5755 5751 5748 5744 5739 5735 5730 5727 5722 5718 5716 5713 5711 5709 5708 5707 5706 5706 5706 5707 5707 5708 5709 5710 5711 5712 5712 5713 5714 5714 5715 5714 5714 5713 5711 5710 5708
5754 5751 5749 5751 5751 5751 5751 5749 5746 5742 5739 5736 5731 5728 5724 5719 5716 5713 5711 5708 5706 5705 5704 5703 5702 5702 5703 5703 5704 5705 5705 5706 5707 5707 5708 5708 5709 5709 5708 5707 5706 5704 5703 5701
5746 5743 5745 5743 5741 5742 5742 5741 5739 5737 5734 5732 5729 5725 5721 5717 5714 5711 5708 5706 5704 5702 5701 5700 5700 5700 5700 5700 5701 5701 5702 5702 5703 5703 5703 5703 5703 5703 5702 5701 5700 5698 5697 5695
5740 5739 5737 5734 5733 5733 5733 5733 5732 5731 5729 5728 5726 5723 5719 5716 5712 5709 5707 5705 5703 5701 5700 5699 5698 5698 5698 5698 5698 5698 5698 5699 5699 5699 5699 5699 5698 5698 5697 5696 5695 5693 5691 5689
5733 5731 5728 5726 5725 5724 5724 5725 5725 5724 5723 5722 5721 5719 5717 5714 5711 5709 5706 5704 5702 5700 5699 5698 5697 5696 5696 5696 5696 5695 5695 5695 5695 5695 5695 5694 5694 5693 5692 5691 5690 5688 5686 5684
5728 5725 5721 5719 5717 5716 5715 5716 5717 5716 5716 5716 5715 5714 5713 5711 5709 5707 5705 5703 5701 5699 5698 5697 5696 5695 5694 5694 5693 5693 5692 5692 5692 5691 5691 5690 5690 5689 5688 5687 5685 5683 5681 5679
5723 5720 5715 5713 5710 5708 5707 5707 5708 5709 5709 5708 5708 5708 5707 5705 5704 5703 5701 5700 5699 5697 5696 5695 5694 5693 5692 5692 5691 5690 5690 5689 5688 5688 5687 5687 5686 5685 5684 5682 5680 5678 5676 5673
5717 5714 5710 5706 5703 5701 5700 5699 5700 5700 5700 5700 5700 5700 5700 5699 5698 5697 5696 5696 5695 5694 5693 5692 5691 5690 5689 5689 5688 5687 5686 5685 5685 5684 5683 5682 5681 5680 5679 5678 5675 5673 5670 5667
5712 5708 5704 5701 5698 5695 5693 5692 5692 5692 5692 5692 5692 5692 5692 5692 5691 5690 5690 5690 5689 5689 5688 5687 5687 5686 5685 5685 5684 5683 5682 5681 5680 5680 5679 5678 5677 5676 5674 5672 5670 5668 5665 5662
5706 5702 5699 5696 5693 5690 5688 5686 5685 5685 5684 5684 5684 5684 5684 5683 5683 5683 5682 5682 5682 5682 5681 5681 5681 5680 5680 5679 5679 5678 5677 5677 5676 5675 5674 5673 5671 5670 5669 5668 5666 5663 5661 5658
5699 5696 5693 5690 5688 5685 5683 5681 5679 5678 5677 5677 5676 5676 5676 5675 5675 5674 5674 5674 5674 5674 5674 5674 5673 5673 5673 5673 5672 5672 5672 5671 5670 5669 5668 5667 5666 5665 5664 5663 5661 5659 5656 5653
5691 5688 5685 5683 5681 5678 5676 5675 5673 5672 5670 5669 5669 5668 5668 5667 5667 5666 5665 5665 5665 5666 5665 5665 5665 5665 5665 5665 5665 5665 5665 5665 5664 5663 5663 5662 5661 5660 5659 5658 5656 5654 5651 5648
5682 5679 5677 5674 5672 5670 5669 5667 5665 5664 5662 5661 5661 5660 5659 5659 5658 5658 5657 5657 5657 5657 5656 5656 5656 5657 5657 5657 5657 5658 5658 5658 5657 5657 5656 5656 5655 5654 5652 5651 5650 5648 5646 5643
5670 5667 5665 5663 5662 5660 5659 5657 5656 5655 5654 5652 5651 5651 5651 5650 5650 5649 5649 5648 5648 5648 5647 5646 5647 5647 5648 5648 5649 5649 5650 5650 5650 5650 5649 5649 5648 5647 5646 5645 5643 5641 5639 5636
5658 5655 5653 5651 5649 5648 5647 5646 5645 5644 5643 5642 5641 5641 5641 5641 5640 5640 5639 5640 5640 5640 5639 5638 5638 5638 5638 5638 5639 5640 5641 5642 5642 5642 5641 5641 5641 5640 5639 5638 5636 5634 5632 5630
5645 5642 5640 5637 5636 5634 5633 5633 5633 5633 5632 5631 5630 5629 5629 5630 5630 5630 5629 5630 5632 5631 5630 5630 5630 5629 5629 5629 5630 5631 5632 5633 5634 5634 5634 5634 5633 5633 5632 5631 5629 5627 5625 5623
5631 5628 5626 5623 5621 5620 5619 5618 5619 5619 5619 5619 5618 5617 5617 5618 5618 5618 5619 5621 5622 5621 5621 5622 5622 5622 5621 5620 5620 5622 5623 5624 5625 5626 5626 5627 5626 5626 5625 5624 5622 5620 5618 5616
5612 5610 5608 5606 5604 5604 5604 5604 5603 5604 5604 5605 5605 5605 5604 5605 5605 5606 5608 5610 5611 5611 5611 5613 5614 5614 5613 5612 5613 5613 5614 5615 5616 5617 5618 5618 5618 5618 5617 5616 5615 5613 5611 5609
5591 5589 5588 5587 5586 5585 5586 5587 5587 5587 5588 5589 5589 5589 5589 5590 5591 5592 5595 5597 5598 5600 5601 5603 5604 5605 5605 5605 5605 5606 5606 5607 5608 5609 5609 5610 5610 5610 5609 5608 5607 5605 5603 5601
5567 5566 5565 5565 5566 5566 5567 5568 5569 5571 5571 5572 5573 5573 5573 5575 5576 5579 5581 5583 5586 5588 5590 5593 5594 5596 5596 5597 5598 5599 5599 5599 5600 5601 5601 5602 5602 5601 5601 5600 5599 5598 5596 5594
5543 5543 5543 5544 5545 5547 5549 5551 5553 5555 5555 5556 5557 5558 5559 5560 5562 5564 5567 5570 5573 5576 5579 5582 5584 5586 5588 5589 5590 5591 5591 5592 5593 5593 5594 5594 5594 5594 5593 5592 5591 5590 5589 5586
5523 5522 5523 5525 5528 5530 5533 5535 5537 5539 5540 5541 5543 5544 5545 5546 5548 5551 5554 5557 5561 5564 5568 5571 5574 5577 5579 5581 5582 5583 5584 5585 5585 5586 5586 5586 5586 5586 5585 5585 5584 5583 5581 5578